Weather History for KPEA - February, 2012

Change the Weather History Date:

Friday, February 3, 2012

  Actual Average (KOXV) Record (KOXV)
Temperature  
Mean Temperature 34 °F -  
Max Temperature 36 °F 30 °F 62 °F (1992)
Min Temperature 31 °F 12 °F -15 °F (1989)
Degree Days  
Heating Degree Days 32    
Moisture  
Dew Point 32 °F    
Average Humidity 93    
Maximum Humidity 99    
Minimum Humidity 86    
Precipitation  
Precipitation 0.00 in - - ()
Sea Level Pressure  
Sea Level Pressure 30.31 in    
Wind  
Wind Speed 8 mph (ENE)    
Max Wind Speed 15 mph    
Max Gust Speed 24 mph    
Visibility 3 miles    
Events      
Averages and records for this station are not official NWS values.
T = Trace of Precipitation, MM = Missing Value Source: NWS Daily Summary

Daily Weather History Graph

Daily Weather History Graph

Search for Another Location

Airport or City:

Trip Planner

Search our weather history database for the weather conditions in past years. The results will help you decide how hot, cold, wet, or windy it might be!

Date:

Astronomy

Feb. 03, 2012 Rise Set
Actual Time 7:21 AM CST 5:29 PM CST
Civil Twilight 6:52 AM CST 5:59 PM CST
Nautical Twilight 6:19 AM CST 6:32 PM CST
Astronomical Twilight 5:47 AM CST 7:04 PM CST
Moon 1:30 PM CST (2/3) 3:59 AM CST (2/3)
Length of Visible Light 11h 06m
Length of Day
10h 08m
Waxing Gibbous, 82% of the Moon is Illuminated
Feb 3
Waxing Gibbous
Feb 7
Full
Feb 14
Last Quarter
Feb 21
New
Feb 29
First Quarter

Hourly Weather History & Observations

Time (CST) Temp. Windchill Dew Point Humidity Pressure Visibility Wind Dir Wind Speed Gust Speed Precip Events Conditions
12:15 AM 34.7 °F 29.6 °F 32.0 °F 90% 30.33 in 5.0 mi East 5.8 mph - N/A   Clear
12:35 AM 34.7 °F 30.6 °F 32.2 °F 91% 30.32 in 5.0 mi ENE 4.6 mph - N/A   Clear
12:55 AM 35.1 °F 29.3 °F 32.4 °F 90% 30.31 in 5.0 mi East 6.9 mph - N/A   Clear
1:15 AM 34.9 °F 29.9 °F 32.4 °F 91% 30.31 in 5.0 mi East 5.8 mph - N/A   Clear
1:35 AM 34.7 °F 29.6 °F 32.2 °F 91% 30.31 in 5.0 mi ENE 5.8 mph - N/A   Clear
1:55 AM 34.3 °F 30.2 °F 32.0 °F 91% 30.32 in 5.0 mi East 4.6 mph - N/A   Clear
2:15 AM 34.2 °F 28.2 °F 32.2 °F 92% 30.33 in 5.0 mi East 6.9 mph - N/A   Clear
2:35 AM 34.2 °F 29.0 °F 32.2 °F 92% 30.33 in 5.0 mi East 5.8 mph - N/A   Clear
2:55 AM 34.0 °F 28.8 °F 32.0 °F 92% 30.31 in 4.0 mi East 5.8 mph - N/A   Clear
3:15 AM 33.8 °F 27.7 °F 32.0 °F 93% 30.32 in 4.0 mi ENE 6.9 mph - N/A   Clear
3:35 AM 33.4 °F 25.9 °F 32.0 °F 94% 30.31 in 4.0 mi ENE 9.2 mph - N/A   Clear
3:55 AM 32.9 °F 25.3 °F 31.8 °F 96% 30.31 in 2.5 mi East 9.2 mph - N/A   Overcast
4:15 AM 32.5 °F 24.8 °F 31.6 °F 96% 30.31 in 1.5 mi East 9.2 mph 16.1 mph N/A   Overcast
4:35 AM 32.0 °F 23.6 °F 31.5 °F 98% 30.30 in 1.5 mi East 10.4 mph 17.3 mph N/A   Overcast
4:55 AM 32.0 °F 23.6 °F 31.3 °F 97% 30.31 in 1.8 mi East 10.4 mph - N/A   Overcast
5:15 AM 32.0 °F 24.2 °F 31.1 °F 96% 30.33 in 1.8 mi East 9.2 mph - N/A   Overcast
5:35 AM 32.0 °F 23.6 °F 31.1 °F 96% 30.32 in 2.0 mi East 10.4 mph - N/A   Overcast
5:55 AM 31.8 °F 23.9 °F 31.1 °F 97% 30.31 in 1.5 mi ENE 9.2 mph - N/A   Overcast
6:15 AM 31.8 °F 23.9 °F 31.1 °F 97% 30.33 in 1.5 mi East 9.2 mph - N/A   Overcast
6:35 AM 31.8 °F 25.4 °F 31.1 °F 97% 30.34 in 2.0 mi East 6.9 mph - N/A   Overcast
6:55 AM 31.8 °F 24.6 °F 31.1 °F 97% 30.35 in 2.0 mi ENE 8.1 mph - N/A   Overcast
7:15 AM 31.8 °F 23.3 °F 31.1 °F 97% 30.35 in 1.8 mi ENE 10.4 mph - N/A   Overcast
7:35 AM 31.8 °F 24.6 °F 31.1 °F 97% 30.35 in 1.5 mi East 8.1 mph - N/A   Overcast
7:55 AM 31.8 °F 25.4 °F 31.1 °F 97% 30.36 in 1.2 mi ENE 6.9 mph - N/A   Overcast
8:15 AM 32.0 °F 23.6 °F 31.1 °F 96% 30.36 in 1.5 mi East 10.4 mph - N/A   Overcast
8:35 AM 32.0 °F 24.8 °F 31.3 °F 97% 30.36 in 1.5 mi East 8.1 mph - N/A   Overcast
8:55 AM 32.0 °F 24.2 °F 31.5 °F 98% 30.36 in 1.8 mi ENE 9.2 mph - N/A   Overcast
9:15 AM 32.0 °F 24.2 °F 31.6 °F 99% 30.36 in 1.8 mi East 9.2 mph - N/A   Overcast
9:35 AM 32.0 °F 24.8 °F 31.6 °F 99% 30.36 in 2.0 mi East 8.1 mph - N/A   Overcast
9:55 AM 32.4 °F 24.6 °F 32.0 °F 99% 30.36 in 2.0 mi ENE 9.2 mph - N/A   Overcast
10:15 AM 32.9 °F 25.9 °F 32.0 °F 96% 30.37 in 2.5 mi ENE 8.1 mph - N/A   Overcast
10:35 AM 33.1 °F 26.1 °F 32.0 °F 96% 30.37 in 2.5 mi ENE 8.1 mph - N/A   Overcast
10:55 AM 33.3 °F 27.9 °F 32.0 °F 95% 30.36 in 2.5 mi ENE 5.8 mph - N/A   Overcast
11:15 AM 33.6 °F 28.4 °F 32.0 °F 94% 30.36 in 3.0 mi ENE 5.8 mph - N/A   Overcast
11:35 AM 33.8 °F 26.4 °F 32.0 °F 93% 30.36 in 3.0 mi East 9.2 mph - N/A   Overcast
11:55 AM 34.0 °F 27.2 °F 32.0 °F 92% 30.36 in 3.0 mi East 8.1 mph - N/A   Overcast
12:15 PM 34.5 °F 26.7 °F 32.0 °F 90% 30.34 in 3.0 mi East 10.4 mph - N/A   Overcast
12:35 PM 34.7 °F 26.4 °F 32.0 °F 90% 30.34 in 3.0 mi ENE 11.5 mph 16.1 mph N/A   Overcast
12:55 PM 34.7 °F 29.6 °F 32.0 °F 90% 30.32 in 4.0 mi ENE 5.8 mph - N/A   Overcast
1:15 PM 35.1 °F 27.4 °F 32.2 °F 89% 30.31 in 3.0 mi East 10.4 mph - N/A   Overcast
1:35 PM 35.2 °F 30.3 °F 32.0 °F 88% 30.31 in 4.0 mi East 5.8 mph - N/A   Overcast
1:55 PM 35.6 °F 29.2 °F 32.2 °F 87% 30.30 in 4.0 mi ENE 8.1 mph - N/A   Overcast
2:15 PM 36.0 °F 31.1 °F 32.4 °F 87% 30.30 in 4.0 mi ENE 5.8 mph - N/A   Scattered Clouds
2:35 PM 36.5 °F 31.0 °F 32.5 °F 86% 30.31 in 4.0 mi ENE 6.9 mph - N/A   Mostly Cloudy
2:55 PM 36.3 °F 30.8 °F 32.5 °F 86% 30.30 in 4.0 mi ENE 6.9 mph - N/A   Overcast
3:15 PM 36.0 °F 32.1 °F 32.2 °F 86% 30.30 in 4.0 mi NE 4.6 mph - N/A   Overcast
3:35 PM 35.4 °F 29.0 °F 32.0 °F 87% 30.30 in 4.0 mi ENE 8.1 mph - N/A   Overcast
3:55 PM 35.1 °F 28.6 °F 32.0 °F 89% 30.30 in 4.0 mi ENE 8.1 mph - N/A   Overcast
4:15 PM 35.1 °F 27.4 °F 32.0 °F 89% 30.29 in 4.0 mi ENE 10.4 mph 17.3 mph N/A   Overcast
4:35 PM 34.9 °F 27.7 °F 32.0 °F 89% 30.29 in 4.0 mi ENE 9.2 mph - N/A   Overcast
4:55 PM 34.7 °F 29.6 °F 32.0 °F 90% 30.30 in 4.0 mi East 5.8 mph - N/A   Mostly Cloudy
5:15 PM 34.2 °F 29.0 °F 31.8 °F 91% 30.29 in 4.0 mi ENE 5.8 mph - N/A   Mostly Cloudy
5:35 PM 34.0 °F 26.6 °F 31.6 °F 91% 30.30 in 4.0 mi ENE 9.2 mph 16.1 mph N/A   Overcast
5:55 PM 33.6 °F 26.2 °F 31.3 °F 91% 30.31 in 5.0 mi East 9.2 mph - N/A   Overcast
6:15 PM 33.3 °F 24.6 °F 31.1 °F 92% 30.30 in 4.0 mi East 11.5 mph 17.3 mph N/A   Light Drizzle
6:35 PM 32.9 °F 24.1 °F 31.1 °F 93% 30.28 in 4.0 mi East 11.5 mph 19.6 mph N/A   Light Drizzle
6:55 PM 32.5 °F 22.7 °F 31.1 °F 94% 30.27 in 3.0 mi East 13.8 mph 18.4 mph N/A   Light Drizzle
7:15 PM 32.4 °F 24.0 °F 31.1 °F 95% 30.24 in 3.0 mi East 10.4 mph 18.4 mph N/A   Light Drizzle
7:35 PM 32.4 °F 24.0 °F 31.3 °F 96% 30.25 in 4.0 mi East 10.4 mph 20.7 mph N/A   Overcast
7:55 PM 32.2 °F 21.8 °F 31.1 °F 96% 30.22 in 4.0 mi ENE 15.0 mph 24.2 mph N/A   Overcast
8:15 PM 32.2 °F 23.2 °F 31.1 °F 96% 30.22 in 5.0 mi NE 11.5 mph 19.6 mph N/A   Overcast
8:35 PM 32.7 °F 24.5 °F 31.3 °F 94% 30.26 in 5.0 mi East 10.4 mph 17.3 mph N/A   Overcast
8:55 PM 32.9 °F 26.7 °F 31.5 °F 94% 30.27 in 5.0 mi ENE 6.9 mph - N/A   Overcast
9:15 PM 32.9 °F 24.7 °F 31.1 °F 93% 30.27 in 4.0 mi East 10.4 mph - N/A   Overcast
9:35 PM 32.9 °F 26.7 °F 31.1 °F 93% 30.28 in 4.0 mi East 6.9 mph - N/A   Overcast
9:55 PM 32.9 °F 26.7 °F 31.1 °F 93% 30.27 in 4.0 mi ENE 6.9 mph - N/A   Overcast
10:15 PM 32.9 °F 26.7 °F 31.1 °F 93% 30.27 in 4.0 mi NE 6.9 mph - N/A   Overcast
10:35 PM 32.9 °F 25.9 °F 31.1 °F 93% 30.27 in 4.0 mi NE 8.1 mph - N/A   Overcast
10:55 PM 32.9 °F 26.7 °F 31.3 °F 94% 30.28 in 4.0 mi NE 6.9 mph - N/A Rain Rain
11:15 PM 32.7 °F 24.5 °F 31.5 °F 95% 30.27 in 2.0 mi NNE 10.4 mph - N/A Rain Light Rain
11:35 PM 32.0 °F 23.0 °F 31.1 °F 96% 30.27 in 2.5 mi NNE 11.5 mph 16.1 mph N/A Rain Rain
11:55 PM 32.0 °F 23.0 °F 31.3 °F 97% 30.27 in 2.0 mi NNE 11.5 mph - N/A   Drizzle